Location: Carr Mill
(33.2054°N, 85.9439°W)
Time: 21:22:52
(UTC+00:00)

STARLINK-2704 - Pass Details

Date: 24 June 2021
Orbit: 546 x 548 km, 53.1° (Epoch: 03 August)

Event Time Altitude Azimuth Distance (km) Brightness Sun altitude
Exits shadow 08:02:05 60° 73° (ENE) 629 4.0 -24.8°
Drops below altitude 10° 08:05:35 10° 48° (NE) 1,818 7.3 -24.4°
Sets 08:07:49 0° 46° (NE) 2,715 8.5 -24.1°
